SCP
2 2 2 2 1 1 1 1 1 1 1 0 0 0 0 0 0 0 1 1 1 1 1 1 1 1 1 1 1 1 1 1 1 1 1 1 1 1 1 1 1 1 1
2 1 1 1 1 1 1 1 1 1 1 0 0 0 0 0 0 1 1 1 1 1 1 1 1 1 1 2 2 2 1 1 1 1 1 1 1 1 1 1 1 1 1
1 1 1 1 1 1 1 1 1 1 1 1 1 0 0 1 1 1 1 1 1 1 1 1 1 2 2 2 3 3 2 1 1 1 1 1 1 1 1 1 1 1 1
1 1 1 1 1 1 0 0 0 0 0 1 1 1 1 1 1 1 1 1 1 1 1 1 2 2 2 2 2 3 2 2 1 1 1 1 1 1 1 1 1 1 1
1 1 1 1 1 1 0 0 0 0 0 1 1 1 1 1 1 1 1 1 1 1 1 1 2 2 2 1 1 1 2 1 1 1 1 1 1 1 1 1 1 1 1
1 1 1 1 1 1 0 0 0 0 1 1 1 1 1 1 1 1 1 0 0 0 1 1 1 1 1 1 1 1 1 1 1 1 1 1 1 1 1 1 1 1 1
1 1 1 1 1 1 1 1 1 0 1 1 1 1 0 0 0 0 0 0 0 0 0 0 0 0 0 0 0 0 0 1 1 1 1 1 1 1 1 1 1 1 1
1 1 1 1 1 1 1 1 1 1 1 1 1 1 1 0 0 0 0 0 0 0 0 0 0 0 0 0 0 0 0 0 1 1 1 1 1 1 1 1 1 1 1
2 2 1 1 1 1 1 1 1 1 1 1 1 1 1 1 0 0 0 0 0 0 0 0 0 0 0 0 0 0 0 0 1 1 1 1 1 1 1 1 1 1 1
2 2 2 2 2 1 1 1 1 1 1 1 1 1 1 1 1 0 0 0 0 0 0 0 0 0 0 0 0 0 0 0 0 1 1 1 1 1 1 1 1 1 1
2 2 2 2 2 2 2 1 1 1 1 1 1 1 1 1 1 1 0 0 0 0 0 0 0 0 0 0 0 0 0 0 0 0 1 1 1 1 1 1 1 1 1
2 2 2 2 2 2 2 1 1 1 1 1 1 1 0 0 0 1 1 0 0 0 0 0 0 0 0 0 0 0 0 0 0 0 0 1 1 1 1 1 1 1 1
1 1 1 1 2 1 1 1 1 1 1 1 1 1 0 0 0 0 0 0 0 0 0 0 0 0 0 0 0 0 0 0 0 0 0 0 1 1 0 1 1 1 1
1 1 1 1 1 1 1 1 1 1 1 1 1 1 1 0 0 0 0 0 0 0 0 0 0 0 0 0 0 0 0 0 0 0 0 0 0 0 0 0 1 1 1
1 1 1 1 1 1 1 1 1 1 1 1 1 0 0 0 0 0 0 0 0 0 0 0 0 0 0 0 0 0 0 0 0 0 0 0 0 0 0 0 0 1 1
1 1 1 1 1 1 1 1 1 1 1 1 0 0 0 0 0 0 0 0 0 0 0 0 0 0 0 0 0 0 0 0 0 0 0 0 0 0 0 0 0 0 1
0 0 1 1 1 1 1 0 0 1 1 0 0 0 0 0 0 0 0 0 0 0 0 0 0 0 0 0 0 0 0 0 0 0 0 0 0 0 0 0 0 0 1
1 1 1 1 1 1 1 0 0 0 0 0 0 0 0 0 0 0 0 0 0 0 0 0 0 0 0 0 0 0 0 0 0 0 0 0 0 0 0 0 0 0 0
1 1 1 1 1 1 1 0 0 0 0 0 0 0 0 0 0 0 0 0 0 0 0 0 0 0 0 0 0 0 0 0 0 0 0 0 0 0 0 0 0 0 0
1 1 1 1 1 1 1 0 0 0 0 0 0 0 0 0 0 0 0 0 0 0 0 0 0 0 0 0 0 0 0 0 0 0 0 0 0 0 0 0 0 0 0
1 1 1 1 1 1 1 0 0 0 0 0 0 0 0 0 0 0 0 0 0 0 0 0 0 0 0 0 0 1 1 0 0 0 0 0 0 0 0 0 0 0 0
1 1 1 1 1 1 0 0 0 0 0 0 0 0 0 0 0 0 0 0 0 0 0 0 0 0 0 0 0 1 1 1 0 0 0 0 0 0 0 0 0 0 0
1 1 1 1 1 0 0 0 0 0 0 0 0 0 0 0 0 0 0 0 0 0 0 0 0 0 0 0 0 0 1 1 0 0 0 0 0 0 0 0 0 0 0
1 1 1 1 1 1 0 0 0 0 0 0 0 0 0 0 0 0 0 0 0 0 0 0 0 0 0 0 0 0 0 0 0 0 0 0 0 0 0 0 0 0 0
2 2 2 1 1 1 0 0 0 0 0 0 0 0 0 0 0 0 0 0 0 0 0 0 0 0 0 0 0 0 0 0 0 0 0 0 0 0 0 0 0 0 0
3 2 2 2 1 1 0 0 0 0 0 0 0 0 0 0 0 0 0 0 0 0 0 0 0 0 0 0 0 0 0 0 0 0 0 0 0 0 0 0 0 0 0
Wind_Speed
3 3 3 3 3 3 3 3 3 4 5 6 6 6 7 6 5 5 5 10 10 10 10 10 10 10 9 9 8 8 7 7 7 8 7 7 7 7 7 8 8 7 7
3 3 4 3 3 3 3 3 4 4 4 5 6 7 7 7 6 5 5 6 9 10 10 10 10 10 10 10 9 8 7 7 7 7 7 7 7 7 7 7 7 7 7
4 4 3 3 3 3 3 3 4 3 4 4 5 6 6 6 6 6 6 4 5 8 10 10 11 11 11 10 10 9 7 7 7 6 7 7 6 6 6 7 7 7 8
5 4 3 3 3 3 3 3 3 3 4 4 4 4 5 5 7 7 6 6 5 5 7 11 11 11 11 10 10 9 7 6 7 6 6 6 6 6 6 6 7 7 7
4 4 3 3 3 3 3 3 3 3 3 4 3 4 4 5 5 6 7 7 6 5 5 7 9 10 11 10 10 10 9 6 6 6 6 5 5 6 6 6 6 6 6
4 3 2 3 3 2 2 2 3 3 3 3 3 4 4 4 4 6 6 6 6 6 6 6 5 6 10 10 11 10 9 8 6 6 6 6 6 6 6 5 5 5 6
3 3 2 3 2 3 3 3 3 3 3 2 2 3 3 4 5 4 4 4 5 6 6 6 5 4 4 8 10 10 8 8 6 5 6 6 6 5 6 5 5 5 5
3 2 2 2 2 2 2 3 2 1 2 1 1 0 1 2 3 4 3 4 5 5 5 6 5 5 5 4 8 10 9 8 6 5 5 6 6 5 5 5 5 6 6
3 2 3 2 2 1 2 1 1 1 1 1 2 2 1 1 1 2 4 3 4 4 4 5 6 6 6 5 5 9 11 9 7 6 6 6 6 6 5 5 5 5 6
2 2 2 2 2 1 1 1 1 1 0 0 1 2 3 2 1 1 1 2 3 4 4 4 4 5 6 5 6 9 10 11 9 7 6 6 6 6 6 6 6 5 5
2 1 1 1 2 1 1 1 0 1 0 1 1 1 1 1 2 1 0 0 1 2 3 3 3 4 5 5 5 9 10 10 10 9 7 6 5 5 6 6 6 6 5
1 1 1 1 1 1 1 1 1 1 1 1 1 1 1 1 1 1 1 1 1 1 2 2 2 3 3 4 6 10 10 9 9 9 8 7 6 6 6 6 6 6 6
0 0 1 1 1 1 1 1 1 1 1 1 1 1 1 2 2 2 1 1 1 0 0 1 2 2 2 3 4 7 8 8 9 8 8 7 6 6 6 6 6 6 6
1 1 1 1 1 1 1 1 0 0 0 1 1 1 1 1 1 1 1 1 1 1 1 1 1 2 2 2 4 5 4 7 7 8 8 7 6 6 6 6 6 6 6
0 0 1 1 1 1 1 1 1 1 1 0 1 0 0 1 1 1 1 2 3 2 1 0 0 1 1 1 3 2 3 6 6 6 6 6 5 5 5 5 5 6 5
0 1 1 1 1 2 1 1 1 1 1 0 1 1 1 1 1 1 1 2 3 3 2 1 1 1 2 1 2 3 2 3 4 4 5 5 4 4 5 4 4 5 5
1 1 2 1 1 1 2 2 2 1 1 1 1 1 1 1 1 1 1 2 2 2 2 1 1 1 1 2 1 2 2 1 1 3 4 4 4 3 3 4 4 5 5
2 2 2 2 2 2 1 2 2 2 2 2 1 2 2 1 2 2 2 2 2 3 3 2 1 1 2 2 2 2 2 2 1 2 3 3 3 2 2 2 3 3 4
2 2 3 3 3 2 2 2 2 2 2 2 2 2 2 2 3 2 3 3 2 2 2 3 2 1 2 2 2 2 2 2 2 0 1 2 2 2 1 1 2 2 2
3 3 3 3 3 3 3 2 2 2 3 2 2 3 3 3 3 3 3 3 3 3 3 3 2 2 2 2 3 3 2 2 2 2 2 2 2 3 3 2 1 1 1
3 3 3 4 3 3 3 3 3 3 3 3 3 3 3 3 4 3 3 3 3 3 3 3 3 3 3 3 3 3 3 3 2 2 3 2 2 3 4 4 3 2 1
3 3 4 4 4 3 3 4 4 4 3 4 4 4 3 4 3 4 4 5 5 5 4 4 4 4 5 4 3 3 3 4 3 2 3 3 3 3 3 2 1 2 3
4 4 4 5 5 4 5 6 6 5 5 4 4 4 3 3 4 5 5 6 6 5 6 6 6 6 5 4 4 5 5 5 4 2 4 4 3 4 3 1 2 3 3
4 5 5 5 5 5 6 7 7 7 6 5 5 5 4 4 3 4 5 5 5 5 5 6 6 6 5 5 5 5 5 5 5 3 3 4 3 4 3 2 4 5 4
5 5 5 5 6 6 7 7 7 6 5 6 5 5 5 5 2 4 5 5 5 4 4 5 6 5 5 6 6 5 5 5 5 3 3 4 4 4 4 4 3 6 6
5 5 5 6 7 7 6 7 8 5 5 5 5 5 6 6 4 5 6 6 6 5 4 5 5 6 7 6 7 7 5 5 5 4 3 4 4 3 3 3 3 3 4
Wind_Direction
37 42 52 48 42 45 51 52 48 52 52 49 46 44 44 51 70 71 77 71 61 58 58 57 56 55 58 60 63 69 72 70 66 65 62 62 65 64 62 59 56 55 57
33 34 46 47 41 40 44 52 58 53 54 50 47 44 43 51 61 71 74 81 70 57 52 53 53 53 54 56 57 59 65 67 66 66 65 65 63 64 61 56 56 52 54
33 40 38 43 42 44 51 54 62 60 62 60 55 49 47 48 56 63 68 65 72 69 56 50 50 50 50 49 48 50 60 67 67 66 65 64 63 63 63 59 57 54 53
41 41 45 46 52 56 56 59 54 56 61 54 52 46 50 45 51 53 60 64 56 56 62 52 47 46 46 44 42 43 50 63 66 67 67 64 62 60 61 61 57 54 52
40 49 41 35 48 54 55 62 58 52 62 56 57 55 51 49 49 49 54 57 58 52 53 62 53 45 40 38 39 38 38 49 62 67 69 69 65 64 63 62 58 54 51
32 46 50 44 52 63 59 65 77 66 61 61 64 59 54 62 59 51 47 50 48 47 44 41 45 54 47 35 34 33 33 34 48 60 63 65 65 64 63 60 55 50 48
31 48 38 44 46 65 61 65 80 89 73 62 79 72 63 60 61 64 48 44 50 45 43 37 31 30 49 48 37 26 23 29 39 48 55 58 61 61 60 57 56 51 48
33 38 51 58 61 80 88 77 82 75 77 33 3 6 94 102 67 57 55 45 45 47 42 38 34 36 32 38 41 28 25 23 36 44 54 55 56 57 57 54 52 53 51
33 40 49 57 62 74 91 85 84 83 80 75 15 341 326 36 65 74 53 50 46 41 39 34 32 32 33 35 32 37 29 23 33 44 53 58 56 55 56 54 50 51 48
51 52 56 58 69 64 86 97 74 57 5 46 60 12 359 7 289 130 95 60 49 44 36 32 31 31 29 33 35 33 32 28 31 36 46 54 57 52 50 49 43 45 45
56 70 66 72 69 69 63 57 44 16 358 348 12 27 31 345 308 286 209 76 68 48 34 28 28 29 28 29 28 31 27 27 27 29 34 40 47 48 44 40 39 40 41
67 90 74 80 77 73 65 58 75 77 19 9 348 345 321 309 318 318 291 277 4 36 26 31 22 28 23 25 34 28 24 25 26 26 28 31 34 41 42 37 37 37 37
5 105 136 98 87 89 77 71 80 82 74 21 6 360 353 342 331 307 281 289 312 316 22 76 39 25 19 20 36 16 29 25 26 25 27 27 29 34 34 33 31 32 29
345 55 137 130 128 139 131 107 93 97 18 17 31 10 348 358 333 310 293 279 264 243 227 61 53 31 15 15 20 341 30 30 25 25 26 25 29 30 31 35 32 26 24
38 106 146 157 162 169 189 173 204 205 219 296 347 24 355 26 320 315 287 277 284 271 266 10 353 23 1 7 352 341 14 33 23 20 22 22 24 27 33 35 31 23 20
153 184 182 182 167 172 183 188 226 261 240 210 288 281 296 303 322 283 278 286 295 294 293 8 319 315 339 337 350 338 7 36 25 19 22 20 22 27 30 30 28 20 16
201 205 196 186 181 192 195 195 211 209 232 230 230 250 258 264 251 240 250 261 274 279 269 282 294 295 293 306 323 309 310 325 40 29 12 8 7 21 31 27 24 23 20
223 223 209 203 196 198 204 210 212 215 228 238 242 247 253 245 262 264 256 247 253 265 260 261 260 275 291 298 294 291 301 313 324 38 354 342 343 353 12 15 13 14 18
229 228 221 215 209 207 206 217 226 224 230 242 253 258 261 261 256 250 249 249 244 255 270 265 268 285 275 272 275 273 273 289 292 235 272 275 286 288 306 337 354 356 18
233 232 230 219 216 216 217 219 230 237 241 246 255 263 262 265 269 260 246 245 242 242 248 256 258 255 254 260 260 261 263 267 278 284 289 284 249 229 229 257 293 309 346
245 238 230 226 221 222 227 234 237 244 251 251 252 255 263 288 304 290 280 262 252 246 244 249 253 259 257 252 259 268 272 271 264 272 270 260 249 236 210 212 228 241 253
245 239 231 226 223 222 204 235 259 248 252 254 254 253 245 232 238 247 269 279 280 266 259 254 256 254 259 262 266 267 271 271 263 250 271 270 272 273 258 234 176 203 233
241 240 237 236 233 222 205 217 238 257 253 254 257 255 254 248 241 238 233 236 248 263 269 267 261 261 263 264 265 266 267 270 276 275 271 264 263 266 263 220 171 214 236
241 243 246 244 244 228 214 220 227 245 249 250 253 254 252 247 245 263 258 251 249 244 250 257 262 266 267 264 261 268 273 272 271 252 255 266 266 269 264 235 180 212 225
242 243 242 241 241 235 220 220 226 246 248 251 253 256 256 251 233 265 264 260 258 250 238 265 284 290 291 282 273 260 255 255 259 247 245 265 270 274 263 244 197 206 221
249 250 248 243 242 244 220 217 229 246 250 252 252 250 245 254 236 239 256 262 262 261 253 243 244 242 246 238 244 246 249 253 260 252 224 250 261 267 264 236 229 218 222